Location: Lachaise
(45.8833°N, 1.8500°E)
Time: 18:06:04
(UTC+00:00)

Cosmos 1241 Rocket - Pass Details

Date: 07 June 2020
Orbit: 937 x 1011 km, 65.8° (Epoch: 13 July)

Event Time Altitude Azimuth Distance (km) Brightness Sun altitude
Exits shadow 01:58:05 23° 219° (SW) 1,888 5.4 -15.6°
Maximum altitude 02:02:08 81° 305° (NW) 959 4.4 -15.2°
Drops below altitude 10° 02:08:25 10° 33° (NNE) 2,684 8.2 -14.6°
Sets 02:11:00 0° 35° (NE) 3,643 9.5 -14.4°
